Weather in Somerset West

South Africa     34°05′28″S   18°50′17″E
В апреле 2022 года жителям России запретили посещать сайт meteo.paraplan.net по решению Генеральной прокуратуры. Аудитория сайта уменьшилась в 10 раз. Владельцы сайта не видят смысла в поддержке погодного сервера в таких условиях. Сайт будет закрыт в октябре.
temp.,
°C
wind,
m/s
gust,
m/s
humid.,
%
clouds,
%
prec.,
mm/h
press.,
hPa
HPBL,
m
6 october, thu
thu623:00+10nne44910 0.0 101960
02:00+9nne46938 0.0 101886
05:00+10nne4791100 0.0 1018134
08:00+12n4879100 0.0 1020305
11:00+17nnw5762100 0.1 10201306
14:00+19nw6755100 0.1 10201276
17:00+18wnw5562100 0.0 10201087
20:00+15ssw358298 0.4 1023331
7 october, fri
fri723:00+14s357569 0.1 1024168
02:00+11s22780 0.1 102311
05:00+10sse33760 0.0 102426
08:00+14se23650 0.0 1025247
11:00+19sw22443 0.0 10241065
14:00+19ssw75515 0.0 1022655
17:00+18s676218 0.0 1019375
20:00+13nw11812 0.0 101825
8 october, sat
sat823:00+12se22795 0.0 101813
02:00+12ssw117966 0.0 101614
05:00+11w118113 0.0 101512
08:00+16sw226483 0.0 1016173
11:00+21sw544865 0.0 1015421
14:00+23ssw775564 0.0 1013410
17:00+22s675899 0.0 1012267
20:00+17sse23775 0.0 101353
9 october, sun
sun923:00+15se22835 0.0 101329
02:00+13se22900 0.0 101328
05:00+13sse119120 0.0 101516
08:00+18se2473100 0.0 1017294
11:00+25sse444777 0.0 1016801
14:00+28s443977 0.0 1015798
17:00+27s454299 0.0 1015503
20:00+20se3459100 0.0 101764
10 october, mon
mon1023:00+16ese2378100 0.0 101645
02:00+15ese238596 0.0 101542
05:00+15ese2285100 0.0 101428
08:00+19e2265100 0.0 1014134
11:00+28sse1336100 0.0 1012483
14:00+29sw3240100 0.0 1009210
17:00+27w2249100 0.0 1007104
20:00+23n2258100 0.0 100824